Location: Tel Aviv
(32.0670°N, 34.7670°E)
Time: 13:53:21
(UTC+03:00)

Tiros 1 - Pass Details

Date: 26 January 2022
Orbit: 629 x 663 km, 48.4° (Epoch: 27 May)

Event Time Altitude Azimuth Distance (km) Brightness Sun altitude
Rises 06:21:03 0° 286° (WNW) 2,955 - -4.2°
Exits shadow 06:22:25 - 278° (W) 2,553 9.6 -4.0°
Reaches altitude 10° 06:24:48 10° 256° (WSW) 2,031 9.2 -3.5°
Maximum altitude 06:26:37 12° 233° (SW) 1,886 9.2 -3.1°
Drops below altitude 10° 06:28:25 10° 210° (SSW) 2,018 9.6 -2.8°
Sets 06:32:08 0° 180° (S) 2,913 10.8 -2.0°
